Orbital Elements at Epoch 2459200.5 (2020-Dec-17.0) TDB
Reference: JPL 21 (heliocentric ecliptic J2000)
Element | Value | Uncertainty (1-sigma) | Units |
e | .217554325280291 | 4.6859e-08 | |
a | 2.240704024707106 | 8.5685e-09 | au |
q | 1.753229172459119 | 1.0516e-07 | au |
i | 4.888471668481611 | 4.7276e-06 | deg |
node | 194.0817454067017 | 4.8404e-05 | deg |
peri | 127.6826122910818 | 4.9363e-05 | deg |
M | 256.4406445881376 | 8.6505e-06 | deg |
tp | 2459552.921184084874 (2021-Dec-04.42118408) | 2.973e-05 | TDB |
period | 1225.110235246037 3.35 | 7.0273e-06 1.924e-08 | d yr |
n | .2938511079598497 | 1.6855e-09 | deg/d |
Q | 2.728178876955093 | 1.0433e-08 | au |
|
| | Orbit Determination Parameters
Additional Information
|